Milford, UT

4:44 AM MDT on September 15, 2019 (GMT -0600)
Milford Municipal

Weather History for KMLF - August, 2019

Change the Weather History Date:

Thursday, August 22, 2019

  Actual Average Record
Temperature  
Mean Temperature 77 °F -  
Max Temperature 95 °F 88 °F 97 °F (2006)
Min Temperature 59 °F 53 °F 48 °F (1996)
Cooling Degree Days 12    
Growing Degree Days 27 (Base 50)    
Moisture  
Dew Point 16 °F    
Average Humidity 9    
Maximum Humidity 29    
Minimum Humidity 5    
Precipitation  
Precipitation 0.00 in - - ()
Sea Level Pressure  
Sea Level Pressure 29.90 in    
Wind  
Wind Speed 15 mph ()    
Max Wind Speed 26 mph    
Max Gust Speed 38 mph    
Visibility 10.0 miles    
Events      
Averages and records for this station are not official NWS values.
T = Trace of Precipitation, MM = Missing Value Source: Averaged Metar Reports

Daily Weather History Graph

Daily Weather History Graph

Search for Another Location

Airport or City:

Astronomy

Aug. 22, 2019 Rise Set
Actual Time 6:52 AM MDT 8:16 PM MDT
Civil Twilight 6:24 AM MDT 8:44 PM MDT
Nautical Twilight 5:51 AM MDT 9:17 PM MDT
Astronomical Twilight 5:16 AM MDT 9:52 PM MDT
Moon No Moon Rise 1:26 PM MDT (8/22)
Length of Visible Light 14h 19m
Length of Day
13h 24m
Waning Gibbous, 59% of the Moon is Illuminated
Aug 22
Waning Gibbous
Aug 23
Last Quarter
Aug 30
New
Sep 5
First Quarter
Sep 13
Full

Hourly Weather History & Observations

Time (MDT) Temp. Dew Point Humidity Pressure Visibility Wind Dir Wind Speed Gust Speed Precip Events Conditions
12:01 AM 73.0 °F 17.1 °F 12% 29.96 in 10.0 mi South 12.7 mph - N/A   Clear
12:03 AM 73.0 °F 17.1 °F 12% 29.96 in 10.0 mi South 12.7 mph - N/A   Clear
12:05 AM 73.0 °F 17.1 °F 12% 29.96 in 10.0 mi South 12.7 mph - N/A   Clear
12:14 AM 73.0 °F 17.1 °F 12% 29.96 in 10.0 mi SSW 12.7 mph - N/A   Clear
12:16 AM 73.0 °F 17.1 °F 12% 29.96 in 10.0 mi SSW 12.7 mph - N/A   Clear
12:18 AM 73.0 °F 17.1 °F 12% 29.96 in 10.0 mi SSW 11.5 mph - N/A   Clear
12:20 AM 72.0 °F 17.1 °F 12% 29.96 in 10.0 mi SSW 11.5 mph - N/A   Clear
12:29 AM 72.0 °F 17.1 °F 12% 29.96 in 10.0 mi SSW 11.5 mph - N/A   Clear
12:31 AM 73.0 °F 17.1 °F 12% 29.96 in 10.0 mi SSW 11.5 mph - N/A   Clear
12:33 AM 73.0 °F 17.1 °F 12% 29.96 in 10.0 mi SSW 11.5 mph - N/A   Clear
12:35 AM 73.0 °F 17.1 °F 12% 29.96 in 10.0 mi SSW 11.5 mph - N/A   Clear
12:52 AM 69.1 °F 18.0 °F 14% 29.72 in 10.0 mi SSW 13.8 mph - N/A   Clear
12:59 AM 70.0 °F 18.0 °F 14% 29.96 in 10.0 mi SSW 13.8 mph - N/A   Clear
1:01 AM 70.0 °F 18.0 °F 14% 29.96 in 10.0 mi SSW 13.8 mph - N/A   Clear
1:03 AM 70.0 °F 18.0 °F 14% 29.95 in 10.0 mi SSW 13.8 mph - N/A   Clear
1:05 AM 69.1 °F 18.0 °F 14% 29.95 in 10.0 mi SSW 13.8 mph - N/A   Clear
1:14 AM 69.1 °F 18.0 °F 14% 29.95 in 10.0 mi SSW 13.8 mph - N/A   Clear
1:16 AM 69.1 °F 18.0 °F 14% 29.95 in 10.0 mi SSW 15.0 mph - N/A   Clear
1:18 AM 70.0 °F 18.0 °F 14% 29.95 in 10.0 mi SSW 13.8 mph - N/A   Clear
1:20 AM 69.1 °F 18.0 °F 14% 29.95 in 10.0 mi SSW 12.7 mph - N/A   Clear
1:29 AM 68.0 °F 18.0 °F 15% 29.95 in 10.0 mi SSW 15.0 mph - N/A   Clear
1:31 AM 68.0 °F 18.0 °F 15% 29.95 in 10.0 mi SSW 13.8 mph - N/A   Clear
1:33 AM 69.1 °F 18.0 °F 14% 29.95 in 10.0 mi SSW 13.8 mph - N/A   Clear
1:35 AM 69.1 °F 18.0 °F 14% 29.95 in 10.0 mi SSW 12.7 mph - N/A   Clear
1:44 AM 68.0 °F 17.1 °F 14% 29.95 in 10.0 mi SW 12.7 mph - N/A   Clear
1:46 AM 68.0 °F 17.1 °F 14% 29.95 in 10.0 mi SW 11.5 mph - N/A   Clear
1:48 AM 68.0 °F 17.6 °F 15% 29.95 in 10.0 mi SW 11.5 mph - N/A   Clear
1:50 AM 68.0 °F 15.8 °F 13% 29.95 in 10.0 mi SW 11.5 mph - N/A   Clear
1:52 AM 68.0 °F 16.0 °F 14% 29.70 in 10.0 mi SW 11.5 mph - N/A   Clear
1:59 AM 66.9 °F 16.0 °F 14% 29.95 in 10.0 mi SW 11.5 mph - N/A   Clear
2:01 AM 68.0 °F 16.0 °F 14% 29.95 in 10.0 mi SW 12.7 mph - N/A   Clear
2:03 AM 69.1 °F 16.0 °F 13% 29.95 in 10.0 mi SW 12.7 mph - N/A   Clear
2:05 AM 69.1 °F 16.0 °F 13% 29.95 in 10.0 mi SW 12.7 mph - N/A   Clear
2:14 AM 71.1 °F 16.0 °F 12% 29.95 in 10.0 mi SW 11.5 mph - N/A   Clear
2:16 AM 72.0 °F 16.0 °F 12% 29.95 in 10.0 mi SW 11.5 mph - N/A   Clear
2:18 AM 72.0 °F 16.0 °F 12% 29.94 in 10.0 mi SW 11.5 mph - N/A   Clear
2:52 AM 70.0 °F 18.0 °F 14% 29.70 in 10.0 mi South 6.9 mph - N/A   Clear
3:50 AM 73.4 °F 15.8 °F 11% 29.93 in 10.0 mi SSW 12.7 mph - N/A   Clear
3:52 AM 73.0 °F 16.0 °F 11% 29.68 in 10.0 mi SW 12.7 mph - N/A   Clear
3:59 AM 73.0 °F 16.0 °F 11% 29.93 in 10.0 mi SW 13.8 mph - N/A   Clear
4:01 AM 73.9 °F 16.0 °F 11% 29.93 in 10.0 mi SW 13.8 mph - N/A   Clear
4:03 AM 73.9 °F 16.0 °F 11% 29.93 in 10.0 mi SW 13.8 mph - N/A   Clear
4:05 AM 73.4 °F 15.8 °F 11% 29.93 in 10.0 mi SW 15.0 mph - N/A   Clear
4:14 AM 73.9 °F 16.0 °F 11% 29.93 in 10.0 mi SW 13.8 mph - N/A   Clear
4:16 AM 73.9 °F 16.0 °F 11% 29.93 in 10.0 mi SW 13.8 mph - N/A   Clear
4:18 AM 73.9 °F 16.0 °F 11% 29.93 in 10.0 mi SW 15.0 mph - N/A   Clear
4:20 AM 75.0 °F 16.0 °F 11% 29.93 in 10.0 mi SW 13.8 mph - N/A   Clear
4:29 AM 73.9 °F 16.0 °F 11% 29.94 in 10.0 mi SW 13.8 mph - N/A   Clear
4:31 AM 75.0 °F 16.0 °F 11% 29.94 in 10.0 mi SW 15.0 mph - N/A   Clear
4:33 AM 73.9 °F 16.0 °F 11% 29.94 in 10.0 mi SSW 13.8 mph - N/A   Clear
4:35 AM 73.9 °F 16.0 °F 11% 29.94 in 10.0 mi SSW 13.8 mph - N/A   Clear
4:44 AM 72.0 °F 16.0 °F 12% 29.94 in 10.0 mi SSW 13.8 mph - N/A   Clear
4:46 AM 71.1 °F 16.0 °F 12% 29.94 in 10.0 mi SSW 15.0 mph - N/A   Clear
4:48 AM 69.8 °F 17.6 °F 14% 29.94 in 10.0 mi SSW 13.8 mph - N/A   Clear
4:50 AM 69.8 °F 17.6 °F 14% 29.94 in 10.0 mi SSW 15.0 mph - N/A   Clear
4:52 AM 70.0 °F 18.0 °F 14% 29.69 in 10.0 mi SSW 13.8 mph - N/A   Clear
4:59 AM 69.1 °F 18.0 °F 14% 29.93 in 10.0 mi SSW 15.0 mph - N/A   Clear
5:01 AM 70.0 °F 18.0 °F 14% 29.93 in 10.0 mi SSW 16.1 mph - N/A   Clear
5:03 AM 70.0 °F 18.0 °F 14% 29.93 in 10.0 mi SSW 15.0 mph - N/A   Clear
5:05 AM 70.0 °F 18.0 °F 14% 29.93 in 10.0 mi SSW 15.0 mph - N/A   Clear
5:14 AM 69.8 °F 17.6 °F 14% 29.93 in 10.0 mi SW 15.0 mph - N/A   Clear
5:16 AM 69.1 °F 18.0 °F 14% 29.93 in 10.0 mi SW 15.0 mph - N/A   Clear
5:20 AM 69.1 °F 18.0 °F 14% 29.93 in 10.0 mi SW 15.0 mph - N/A   Clear
5:29 AM 68.0 °F 18.0 °F 15% 29.93 in 10.0 mi SW 13.8 mph - N/A   Clear
5:31 AM 68.0 °F 18.0 °F 15% 29.93 in 10.0 mi SW 13.8 mph - N/A   Clear
5:33 AM 68.0 °F 18.0 °F 15% 29.93 in 10.0 mi SW 15.0 mph - N/A   Clear
5:35 AM 68.0 °F 18.0 °F 15% 29.93 in 10.0 mi SW 13.8 mph - N/A   Clear
5:44 AM 68.0 °F 18.0 °F 15% 29.94 in 10.0 mi SW 15.0 mph - N/A   Clear
5:46 AM 66.9 °F 19.0 °F 16% 29.94 in 10.0 mi SW 15.0 mph - N/A   Clear
5:48 AM 66.2 °F 19.4 °F 17% 29.94 in 10.0 mi SW 13.8 mph - N/A   Clear
5:50 AM 66.2 °F 19.4 °F 17% 29.94 in 10.0 mi SW 13.8 mph - N/A   Clear
5:52 AM 66.9 °F 19.0 °F 16% 29.70 in 10.0 mi SW 12.7 mph - N/A   Clear
6:02 AM 66.9 °F 18.0 °F 15% 29.94 in 10.0 mi SW 10.4 mph - N/A   Clear
6:52 AM 59.0 °F 27.0 °F 29% 29.73 in 10.0 mi South 5.8 mph - N/A   Clear
7:52 AM 66.9 °F 17.1 °F 15% 29.71 in 10.0 mi South 8.1 mph - N/A   Clear
8:52 AM 70.0 °F 19.9 °F 15% 29.74 in 10.0 mi South 6.9 mph - N/A   Clear
9:44 AM 79.0 °F 19.0 °F 11% 29.96 in 10.0 mi SSW 15.0 mph - N/A   Clear
9:48 AM 78.8 °F 19.4 °F 11% 29.96 in 10.0 mi SSW 15.0 mph - N/A   Clear
9:50 AM 78.8 °F 19.4 °F 11% 29.96 in 10.0 mi SSW 16.1 mph - N/A   Clear
9:52 AM 80.1 °F 18.0 °F 10% 29.73 in 10.0 mi SSW 15.0 mph - N/A   Clear
9:59 AM 81.0 °F 19.0 °F 10% 29.96 in 10.0 mi SSW 17.3 mph - N/A   Clear
10:01 AM 81.0 °F 19.9 °F 10% 29.96 in 10.0 mi SSW 17.3 mph - N/A   Clear
10:03 AM 80.1 °F 19.9 °F 11% 29.96 in 10.0 mi South 15.0 mph - N/A   Clear
10:05 AM 80.1 °F 19.9 °F 11% 29.96 in 10.0 mi SSW 16.1 mph - N/A   Clear
10:14 AM 80.1 °F 21.0 °F 11% 29.95 in 10.0 mi South 17.3 mph - N/A   Clear
10:16 AM 80.1 °F 19.9 °F 11% 29.95 in 10.0 mi South 15.0 mph - N/A   Clear
10:18 AM 80.1 °F 19.9 °F 11% 29.95 in 10.0 mi South 16.1 mph - N/A   Clear
10:20 AM 80.1 °F 19.9 °F 11% 29.95 in 10.0 mi South 13.8 mph - N/A   Clear
10:29 AM 80.1 °F 21.0 °F 11% 29.96 in 10.0 mi South 16.1 mph - N/A   Clear
10:31 AM 81.0 °F 21.0 °F 11% 29.96 in 10.0 mi South 15.0 mph - N/A   Clear
10:33 AM 81.0 °F 21.0 °F 11% 29.96 in 10.0 mi South 16.1 mph - N/A   Clear
10:35 AM 81.0 °F 21.9 °F 11% 29.96 in 10.0 mi South 13.8 mph - N/A   Clear
10:44 AM 82.9 °F 23.0 °F 11% 29.96 in 10.0 mi South 13.8 mph - N/A   Clear
10:46 AM 82.9 °F 23.0 °F 11% 29.96 in 10.0 mi South 15.0 mph - N/A   Clear
10:48 AM 82.4 °F 23.0 °F 11% 29.96 in 10.0 mi South 15.0 mph - N/A   Clear
10:50 AM 82.4 °F 24.8 °F 12% 29.96 in 10.0 mi South 12.7 mph - N/A   Clear
10:52 AM 82.0 °F 24.1 °F 12% 29.72 in 10.0 mi South 16.1 mph - N/A   Clear
10:59 AM 82.9 °F 23.0 °F 11% 29.96 in 10.0 mi South 16.1 mph - N/A   Clear
11:01 AM 84.0 °F 23.0 °F 11% 29.96 in 10.0 mi South 16.1 mph - N/A   Clear
11:03 AM 84.9 °F 21.9 °F 10% 29.96 in 10.0 mi SSW 16.1 mph - N/A   Clear
11:14 AM 86.0 °F 21.2 °F 9% 29.96 in 10.0 mi South 13.8 mph - N/A   Clear
11:16 AM 87.1 °F 21.9 °F 9% 29.96 in 10.0 mi South 13.8 mph - N/A   Clear
11:18 AM 88.0 °F 21.9 °F 9% 29.96 in 10.0 mi South 17.3 mph 21.9 mph N/A   Clear
11:20 AM 88.0 °F 21.0 °F 9% 29.96 in 10.0 mi South 18.4 mph 21.9 mph N/A   Clear
11:31 AM 86.0 °F 21.0 °F 9% 29.96 in 10.0 mi South 15.0 mph - N/A   Clear
11:33 AM 86.0 °F 19.9 °F 9% 29.96 in 10.0 mi South 12.7 mph - N/A   Clear
11:35 AM 86.0 °F 19.9 °F 9% 29.96 in 10.0 mi South 15.0 mph - N/A   Clear
11:44 AM 89.1 °F 19.9 °F 8% 29.95 in 10.0 mi South 15.0 mph - N/A   Clear
11:46 AM 89.1 °F 19.9 °F 8% 29.95 in 10.0 mi South 13.8 mph - N/A   Clear
11:48 AM 89.6 °F 21.2 °F 8% 29.95 in 10.0 mi South 15.0 mph - N/A   Clear
11:50 AM 89.6 °F 19.4 °F 8% 29.95 in 10.0 mi South 12.7 mph - N/A   Clear
11:52 AM 90.0 °F 21.0 °F 8% 29.70 in 10.0 mi South 13.8 mph - N/A   Clear
11:59 AM 89.1 °F 19.0 °F 8% 29.95 in 10.0 mi SSW 18.4 mph 27.6 mph N/A   Clear
12:01 PM 90.0 °F 18.0 °F 7% 29.95 in 10.0 mi SSW 23.0 mph 29.9 mph N/A   Clear
12:03 PM 91.0 °F 18.0 °F 7% 29.95 in 10.0 mi SSW 21.9 mph 29.9 mph N/A   Clear
12:05 PM 91.9 °F 17.1 °F 6% 29.94 in 10.0 mi SSW 19.6 mph 29.9 mph N/A   Clear
12:14 PM 93.0 °F 18.0 °F 6% 29.94 in 10.0 mi South 23.0 mph 28.8 mph N/A   Clear
12:16 PM 91.9 °F 18.0 °F 7% 29.94 in 10.0 mi South 23.0 mph 28.8 mph N/A   Clear
12:18 PM 91.9 °F 18.0 °F 7% 29.94 in 10.0 mi SSW 20.7 mph 32.2 mph N/A   Clear
12:20 PM 91.9 °F 18.0 °F 7% 29.94 in 10.0 mi SSW 25.3 mph 32.2 mph N/A   Clear
12:29 PM 90.0 °F 18.0 °F 7% 29.94 in 10.0 mi SSW 18.4 mph 29.9 mph N/A   Clear
12:31 PM 90.0 °F 18.0 °F 7% 29.94 in 10.0 mi SSW 21.9 mph 29.9 mph N/A   Clear
12:33 PM 89.1 °F 18.0 °F 7% 29.94 in 10.0 mi SSW 19.6 mph 29.9 mph N/A   Clear
12:35 PM 89.1 °F 18.0 °F 7% 29.94 in 10.0 mi SSW 25.3 mph 32.2 mph N/A   Clear
12:46 PM 90.0 °F 18.0 °F 7% 29.94 in 10.0 mi SSW 20.7 mph 27.6 mph N/A   Clear
12:48 PM 89.6 °F 17.6 °F 7% 29.94 in 10.0 mi SW 18.4 mph 27.6 mph N/A   Clear
12:50 PM 89.6 °F 17.6 °F 7% 29.94 in 10.0 mi SW 20.7 mph 28.8 mph N/A   Clear
12:52 PM 90.0 °F 18.0 °F 7% 29.71 in 10.0 mi SW 21.9 mph 28.8 mph N/A   Clear
12:59 PM 90.0 °F 19.0 °F 7% 29.94 in 10.0 mi SW 18.4 mph 28.8 mph N/A   Clear
1:01 PM 90.0 °F 19.0 °F 7% 29.94 in 10.0 mi SW 20.7 mph 27.6 mph N/A   Clear
1:03 PM 90.0 °F 19.0 °F 7% 29.94 in 10.0 mi SW 15.0 mph 27.6 mph N/A   Clear
1:05 PM 90.0 °F 19.0 °F 7% 29.94 in 10.0 mi SW 20.7 mph 27.6 mph N/A   Clear
1:14 PM 91.0 °F 19.0 °F 7% 29.93 in 10.0 mi SW 16.1 mph 25.3 mph N/A   Clear
1:16 PM 91.0 °F 19.0 °F 7% 29.94 in 10.0 mi SW 16.1 mph 25.3 mph N/A   Clear
1:18 PM 91.0 °F 19.0 °F 7% 29.94 in 10.0 mi SW 13.8 mph 25.3 mph N/A   Clear
1:20 PM 91.0 °F 19.0 °F 7% 29.94 in 10.0 mi SSW 16.1 mph 24.2 mph N/A   Clear
1:29 PM 90.0 °F 19.0 °F 7% 29.93 in 10.0 mi SSW 19.6 mph 27.6 mph N/A   Clear
1:31 PM 90.0 °F 19.0 °F 7% 29.93 in 10.0 mi SW 18.4 mph 27.6 mph N/A   Clear
1:35 PM 91.0 °F 19.0 °F 7% 29.93 in 10.0 mi SSW 21.9 mph 31.1 mph N/A   Clear
1:44 PM 91.9 °F 18.0 °F 7% 29.93 in 10.0 mi SW 15.0 mph 31.1 mph N/A   Clear
1:46 PM 91.9 °F 19.0 °F 7% 29.93 in 10.0 mi SW 21.9 mph 29.9 mph N/A   Clear
1:48 PM 91.4 °F 19.4 °F 7% 29.93 in 10.0 mi SW 16.1 mph 29.9 mph N/A   Clear
1:50 PM 91.4 °F 19.4 °F 7% 29.93 in 10.0 mi SW 19.6 mph 31.1 mph N/A   Clear
1:52 PM 93.0 °F 19.0 °F 7% 29.69 in 10.0 mi SSW 23.0 mph 31.1 mph N/A   Clear
1:59 PM 91.9 °F 19.0 °F 7% 29.92 in 10.0 mi SW 19.6 mph 34.5 mph N/A   Clear
2:01 PM 93.0 °F 19.0 °F 7% 29.92 in 10.0 mi SSW 23.0 mph 34.5 mph N/A   Clear
2:03 PM 93.2 °F 19.4 °F 7% 29.92 in 10.0 mi SSW 20.7 mph 34.5 mph N/A   Clear
2:05 PM 93.9 °F 19.0 °F 7% 29.93 in 10.0 mi SW 26.5 mph 33.4 mph N/A   Clear
2:52 PM - - N/A% 29.91 in 10.0 mi North - - N/A   Clear
3:19 PM 91.0 °F 14.0 °F 6% 29.91 in 10.0 mi SSW 26.5 mph 33.4 mph N/A   Clear
3:30 PM 91.9 °F 16.0 °F 6% 29.91 in 10.0 mi SSW 21.9 mph 38.0 mph N/A   Clear
3:32 PM 91.0 °F 15.1 °F 6% 29.90 in 10.0 mi SSW 24.2 mph 34.5 mph N/A   Clear
3:34 PM 91.0 °F 14.0 °F 6% 29.90 in 10.0 mi SSW 24.2 mph 34.5 mph N/A   Clear
3:44 PM 91.9 °F 12.9 °F 5% 29.90 in 10.0 mi SSW 24.2 mph 29.9 mph N/A   Clear
3:48 PM 93.2 °F 14.0 °F 5% 29.90 in 10.0 mi SSW 23.0 mph 29.9 mph N/A   Clear
3:50 PM 93.2 °F 15.8 °F 6% 29.89 in 10.0 mi SSW 25.3 mph 35.7 mph N/A   Clear
3:52 PM 93.0 °F 14.0 °F 5% 29.65 in 10.0 mi SSW 25.3 mph 35.7 mph N/A   Clear
3:59 PM 91.9 °F 14.0 °F 6% 29.89 in 10.0 mi SSW 26.5 mph 35.7 mph N/A   Clear
4:01 PM 93.0 °F 14.0 °F 5% 29.89 in 10.0 mi SW 25.3 mph 35.7 mph N/A   Clear
4:03 PM 93.0 °F 14.0 °F 5% 29.89 in 10.0 mi SW 17.3 mph 35.7 mph N/A   Clear
4:05 PM 93.9 °F 12.9 °F 5% 29.89 in 10.0 mi SW 24.2 mph 36.8 mph N/A   Clear
4:14 PM 93.9 °F 12.0 °F 5% 29.89 in 10.0 mi SSW 26.5 mph 36.8 mph N/A   Clear
4:16 PM 95.0 °F 12.9 °F 5% 29.89 in 10.0 mi SSW 23.0 mph 33.4 mph N/A   Clear
4:18 PM 95.0 °F 14.0 °F 5% 29.89 in 10.0 mi SSW 25.3 mph 33.4 mph N/A   Clear
4:20 PM 93.9 °F 14.0 °F 5% 29.89 in 10.0 mi SW 25.3 mph 33.4 mph N/A   Clear
4:29 PM 91.4 °F 12.2 °F 5% 29.89 in 10.0 mi SSW 23.0 mph 29.9 mph N/A   Clear
4:31 PM 91.9 °F 12.0 °F 5% 29.89 in 10.0 mi SSW 23.0 mph 29.9 mph N/A   Clear
4:35 PM 91.9 °F 12.0 °F 5% 29.89 in 10.0 mi SSW 23.0 mph 28.8 mph N/A   Clear
4:44 PM 93.0 °F 12.9 °F 5% 29.89 in 10.0 mi SW 21.9 mph 31.1 mph N/A   Clear
4:46 PM 93.0 °F 12.9 °F 5% 29.89 in 10.0 mi SW 21.9 mph 31.1 mph N/A   Clear
4:48 PM 91.4 °F 12.2 °F 5% 29.89 in 10.0 mi SW 21.9 mph 31.1 mph N/A   Clear
4:50 PM 91.4 °F 10.4 °F 5% 29.89 in 10.0 mi SSW 19.6 mph 31.1 mph N/A   Clear
4:52 PM 91.0 °F 10.9 °F 5% 29.65 in 10.0 mi SSW 21.9 mph 31.1 mph N/A   Clear
4:59 PM 91.9 °F 12.0 °F 5% 29.88 in 10.0 mi SSW 18.4 mph 27.6 mph N/A   Clear
5:01 PM 93.0 °F 12.0 °F 5% 29.88 in 10.0 mi SSW 23.0 mph 32.2 mph N/A   Clear
5:03 PM 93.0 °F 10.9 °F 5% 29.88 in 10.0 mi SSW 23.0 mph 32.2 mph N/A   Clear
5:05 PM 93.0 °F 10.9 °F 5% 29.88 in 10.0 mi SSW 18.4 mph 32.2 mph N/A   Clear
5:14 PM 91.9 °F 10.0 °F 5% 29.88 in 10.0 mi SSW 21.9 mph 28.8 mph N/A   Clear
5:16 PM 93.0 °F 12.0 °F 5% 29.88 in 10.0 mi SSW 17.3 mph 28.8 mph N/A   Clear
5:18 PM 93.9 °F 12.9 °F 5% 29.88 in 10.0 mi SSW 21.9 mph 28.8 mph N/A   Clear
5:20 PM 93.9 °F 12.9 °F 5% 29.88 in 10.0 mi SSW 23.0 mph 28.8 mph N/A   Clear
5:29 PM 93.0 °F 12.0 °F 5% 29.88 in 10.0 mi SSW 19.6 mph 31.1 mph N/A   Clear
5:31 PM 93.0 °F 12.0 °F 5% 29.88 in 10.0 mi South 18.4 mph 31.1 mph N/A   Clear
5:33 PM 93.0 °F 12.0 °F 5% 29.88 in 10.0 mi SSW 17.3 mph 31.1 mph N/A   Clear
5:35 PM 91.9 °F 12.0 °F 5% 29.88 in 10.0 mi SSW 18.4 mph 31.1 mph N/A   Clear
5:44 PM 90.0 °F 9.0 °F 5% 29.88 in 10.0 mi SSW 20.7 mph 28.8 mph N/A   Clear
5:46 PM 90.0 °F 9.0 °F 5% 29.88 in 10.0 mi SSW 19.6 mph - N/A   Clear
5:48 PM 91.4 °F 8.6 °F 5% 29.88 in 10.0 mi SSW 21.9 mph - N/A   Clear
5:50 PM 91.4 °F 8.6 °F 5% 29.87 in 10.0 mi SSW 20.7 mph - N/A   Clear
5:52 PM 91.9 °F 10.0 °F 5% 29.64 in 10.0 mi SW 23.0 mph 28.8 mph N/A   Clear
5:59 PM 91.9 °F 12.0 °F 5% 29.88 in 10.0 mi SSW 19.6 mph 28.8 mph N/A   Clear
6:01 PM 91.9 °F 12.0 °F 5% 29.88 in 10.0 mi SSW 19.6 mph 25.3 mph N/A   Clear
6:03 PM 91.0 °F 12.0 °F 5% 29.88 in 10.0 mi SSW 18.4 mph 25.3 mph N/A   Clear
6:05 PM 91.0 °F 12.0 °F 5% 29.88 in 10.0 mi SSW 16.1 mph 25.3 mph N/A   Clear
6:14 PM 90.0 °F 12.0 °F 6% 29.87 in 10.0 mi SSW 18.4 mph - N/A   Clear
6:16 PM 90.0 °F 12.0 °F 6% 29.87 in 10.0 mi SSW 16.1 mph - N/A   Clear
6:18 PM 91.0 °F 12.0 °F 5% 29.87 in 10.0 mi South 17.3 mph - N/A   Clear
6:20 PM 91.9 °F 12.0 °F 5% 29.87 in 10.0 mi SSW 18.4 mph 25.3 mph N/A   Clear
6:29 PM 91.9 °F 12.0 °F 5% 29.87 in 10.0 mi SSW 19.6 mph 25.3 mph N/A   Clear
6:31 PM 91.9 °F 12.0 °F 5% 29.87 in 10.0 mi SSW 16.1 mph 25.3 mph N/A   Clear
6:33 PM 91.9 °F 12.9 °F 5% 29.87 in 10.0 mi South 17.3 mph 26.5 mph N/A   Clear
6:35 PM 91.9 °F 12.9 °F 5% 29.87 in 10.0 mi SSW 19.6 mph 26.5 mph N/A   Clear
6:44 PM 91.0 °F 10.0 °F 5% 29.87 in 10.0 mi SSW 21.9 mph 27.6 mph N/A   Clear
6:46 PM 91.0 °F 10.0 °F 5% 29.87 in 10.0 mi SSW 20.7 mph 27.6 mph N/A   Clear
6:48 PM 91.4 °F 8.6 °F 5% 29.87 in 10.0 mi SSW 19.6 mph 27.6 mph N/A   Clear
6:50 PM 91.4 °F 8.6 °F 5% 29.87 in 10.0 mi SSW 20.7 mph 27.6 mph N/A   Clear
6:52 PM 91.0 °F 9.0 °F 5% 29.66 in 10.0 mi SSW 19.6 mph 27.6 mph N/A   Clear
6:59 PM 91.0 °F 10.0 °F 5% 29.87 in 10.0 mi South 16.1 mph 24.2 mph N/A   Clear
7:01 PM 91.0 °F 10.0 °F 5% 29.87 in 10.0 mi South 19.6 mph 24.2 mph N/A   Clear
7:03 PM 91.0 °F 10.0 °F 5% 29.87 in 10.0 mi SSW 17.3 mph 24.2 mph N/A   Clear
7:05 PM 91.4 °F 10.4 °F 5% 29.87 in 10.0 mi SSW 13.8 mph 24.2 mph N/A   Clear
7:14 PM 90.0 °F 10.0 °F 5% 29.87 in 10.0 mi SSW 20.7 mph 25.3 mph N/A   Clear
7:16 PM 90.0 °F 10.0 °F 5% 29.87 in 10.0 mi SSW 19.6 mph - N/A   Clear
7:18 PM 90.0 °F 10.0 °F 5% 29.87 in 10.0 mi SSW 20.7 mph - N/A   Clear
7:20 PM 90.0 °F 10.0 °F 5% 29.87 in 10.0 mi SSW 19.6 mph 27.6 mph N/A   Clear
7:29 PM 89.1 °F 10.0 °F 5% 29.87 in 10.0 mi SSW 18.4 mph 27.6 mph N/A   Clear
7:31 PM 89.1 °F 10.0 °F 5% 29.87 in 10.0 mi SSW 20.7 mph 27.6 mph N/A   Clear
7:33 PM 89.1 °F 10.0 °F 5% 29.87 in 10.0 mi SSW 16.1 mph 25.3 mph N/A   Clear
7:35 PM 89.1 °F 10.0 °F 5% 29.87 in 10.0 mi SSW 19.6 mph 25.3 mph N/A   Clear
7:44 PM 88.0 °F 10.9 °F 6% 29.87 in 10.0 mi SSW 17.3 mph 26.5 mph N/A   Clear
7:46 PM 88.0 °F 10.9 °F 6% 29.87 in 10.0 mi SSW 17.3 mph - N/A   Clear
7:48 PM 87.8 °F 10.4 °F 6% 29.87 in 10.0 mi SSW 17.3 mph - N/A   Clear
7:50 PM 87.8 °F 10.4 °F 6% 29.87 in 10.0 mi SSW 18.4 mph - N/A   Clear
7:52 PM 87.1 °F 10.9 °F 6% 29.65 in 10.0 mi SSW 17.3 mph - N/A   Clear
7:59 PM 86.0 °F 12.0 °F 6% 29.87 in 10.0 mi SSW 16.1 mph - N/A   Clear
8:01 PM 86.0 °F 12.0 °F 6% 29.87 in 10.0 mi SSW 17.3 mph - N/A   Clear
8:03 PM 86.0 °F 12.0 °F 6% 29.87 in 10.0 mi SSW 13.8 mph - N/A   Clear
8:05 PM 84.9 °F 12.0 °F 7% 29.87 in 10.0 mi SSW 15.0 mph - N/A   Clear
8:14 PM 84.0 °F 12.0 °F 7% 29.88 in 10.0 mi SSW 12.7 mph - N/A   Clear
8:16 PM 84.0 °F 12.0 °F 7% 29.88 in 10.0 mi SSW 12.7 mph - N/A   Clear
8:18 PM 82.9 °F 12.9 °F 7% 29.88 in 10.0 mi SSW 12.7 mph - N/A   Clear
8:20 PM 82.9 °F 12.9 °F 7% 29.88 in 10.0 mi SSW 13.8 mph - N/A   Clear
8:29 PM 82.9 °F 12.9 °F 7% 29.88 in 10.0 mi SSW 13.8 mph - N/A   Clear
8:31 PM 82.9 °F 12.9 °F 7% 29.88 in 10.0 mi SSW 12.7 mph - N/A   Clear
8:35 PM 82.0 °F 12.9 °F 7% 29.88 in 10.0 mi SSW 11.5 mph - N/A   Clear
8:44 PM 80.1 °F 14.0 °F 8% 29.88 in 10.0 mi SSW 11.5 mph - N/A   Clear
8:46 PM 80.6 °F 14.0 °F 8% 29.88 in 10.0 mi SSW 11.5 mph - N/A   Clear
8:48 PM 80.6 °F 14.0 °F 8% 29.88 in 10.0 mi SSW 11.5 mph - N/A   Clear
8:52 PM 79.0 °F 14.0 °F 9% 29.67 in 10.0 mi South 10.4 mph - N/A   Clear
9:52 PM 75.9 °F 18.0 °F 11% 29.67 in 10.0 mi South 12.7 mph - N/A   Clear
9:59 PM 75.9 °F 17.1 °F 11% 29.90 in 10.0 mi South 13.8 mph - N/A   Clear
10:01 PM 75.9 °F 17.1 °F 11% 29.90 in 10.0 mi South 12.7 mph - N/A   Clear
10:05 PM 75.9 °F 16.0 °F 10% 29.90 in 10.0 mi South 12.7 mph - N/A   Clear
10:14 PM 77.0 °F 15.1 °F 10% 29.90 in 10.0 mi South 15.0 mph - N/A   Clear
10:16 PM 77.0 °F 15.1 °F 10% 29.90 in 10.0 mi South 17.3 mph - N/A   Clear
10:18 PM 77.0 °F 15.1 °F 10% 29.90 in 10.0 mi South 15.0 mph - N/A   Clear
10:20 PM 77.0 °F 15.1 °F 10% 29.90 in 10.0 mi South 15.0 mph - N/A   Clear
10:29 PM 75.9 °F 15.1 °F 10% 29.90 in 10.0 mi South 13.8 mph - N/A   Clear
10:31 PM 75.9 °F 15.1 °F 10% 29.91 in 10.0 mi South 13.8 mph - N/A   Clear
10:33 PM 75.0 °F 16.0 °F 11% 29.91 in 10.0 mi South 13.8 mph - N/A   Clear
10:35 PM 75.0 °F 16.0 °F 11% 29.91 in 10.0 mi South 11.5 mph - N/A   Clear
10:44 PM 73.9 °F 16.0 °F 11% 29.91 in 10.0 mi South 12.7 mph - N/A   Clear
10:46 PM 73.9 °F 17.1 °F 12% 29.91 in 10.0 mi South 12.7 mph - N/A   Clear
10:48 PM 73.4 °F 17.6 °F 12% 29.91 in 10.0 mi South 11.5 mph - N/A   Clear
10:50 PM 73.4 °F 17.6 °F 12% 29.91 in 10.0 mi South 11.5 mph - N/A   Clear
10:52 PM 73.0 °F 17.1 °F 12% 29.68 in 10.0 mi South 11.5 mph - N/A   Clear
10:59 PM 73.0 °F 17.1 °F 12% 29.91 in 10.0 mi South 12.7 mph - N/A   Clear
11:01 PM 73.0 °F 17.1 °F 12% 29.91 in 10.0 mi South 12.7 mph - N/A   Clear
11:03 PM 73.0 °F 17.1 °F 12% 29.91 in 10.0 mi South 12.7 mph - N/A   Clear
11:05 PM 73.0 °F 17.1 °F 12% 29.91 in 10.0 mi South 11.5 mph - N/A   Clear
11:16 PM 72.0 °F 17.1 °F 12% 29.91 in 10.0 mi South 11.5 mph - N/A   Clear
11:44 PM 73.9 °F 17.1 °F 12% 29.92 in 10.0 mi South 16.1 mph - N/A   Clear
11:46 PM 75.0 °F 17.1 °F 11% 29.92 in 10.0 mi South 16.1 mph - N/A   Clear
11:48 PM 75.2 °F 17.6 °F 11% 29.92 in 10.0 mi South 16.1 mph - N/A   Clear
11:50 PM 75.2 °F 17.6 °F 11% 29.92 in 10.0 mi SSW 17.3 mph - N/A   Clear
11:52 PM 75.0 °F 18.0 °F 12% 29.68 in 10.0 mi SSW 16.1 mph - N/A   Clear
11:59 PM 75.0 °F 17.1 °F 11% 29.92 in 10.0 mi SSW 15.0 mph - N/A   Clear